Gwinn, MI

11:31 PM EST on December 15, 2017 (GMT -0500)
Sawyer International

Weather History for KSAW - November, 2013

Change the Weather History Date:

Wednesday, November 6, 2013

  Actual Average (KESC) Record (KESC)
Temperature  
Mean Temperature 35 °F -  
Max Temperature 38 °F 42 °F 61 °F (2016)
Min Temperature 32 °F 27 °F 5 °F (1985)
Degree Days  
Heating Degree Days 30    
Moisture  
Dew Point 32 °F    
Average Humidity 89    
Maximum Humidity 100    
Minimum Humidity 75    
Precipitation  
Precipitation 0.29 in - - ()
Sea Level Pressure  
Sea Level Pressure 29.88 in    
Wind  
Wind Speed 14 mph (North)    
Max Wind Speed 21 mph    
Max Gust Speed 26 mph    
Visibility 7 miles    
Events Rain , Snow    
Averages and records for this station are not official NWS values.
T = Trace of Precipitation, MM = Missing Value Source: NWS Daily Summary

Daily Weather History Graph

Daily Weather History Graph

Search for Another Location

Airport or City:

Trip Planner

Search our weather history database for the weather conditions in past years. The results will help you decide how hot, cold, wet, or windy it might be!

Date:

Astronomy

Nov. 06, 2013 Rise Set
Actual Time 7:38 AM EST 5:27 PM EST
Civil Twilight 7:06 AM EST 5:59 PM EST
Nautical Twilight 6:30 AM EST 6:35 PM EST
Astronomical Twilight 5:55 AM EST 7:10 PM EST
Moon 10:57 AM EST (11/6) 8:26 PM EST (11/6)
Length of Visible Light 10h 52m
Length of Day
9h 48m
Waxing Crescent, 13% of the Moon is Illuminated
Nov 6
Waxing Crescent
Nov 10
First Quarter
Nov 17
Full
Nov 25
Last Quarter
Dec 2
New

Hourly Weather History & Observations

Time (EST) Temp. Windchill Dew Point Humidity Pressure Visibility Wind Dir Wind Speed Gust Speed Precip Events Conditions
12:16 AM 38.5 °F 30.7 °F 36.1 °F 91% 29.97 in 7.0 mi NE 12.7 mph 18.4 mph 0.02 in Rain Light Rain
12:37 AM 38.3 °F 29.0 °F 35.8 °F 91% 29.96 in 5.0 mi NE 17.3 mph 21.9 mph 0.05 in Rain Rain
12:56 AM 37.8 °F 29.4 °F 35.8 °F 93% 29.96 in 5.0 mi NE 13.8 mph 17.3 mph 0.08 in Rain Rain
1:17 AM 36.5 °F 28.7 °F 34.7 °F 93% 29.97 in 3.0 mi NNE 11.5 mph - 0.04 in   Overcast
1:36 AM 35.6 °F 27.1 °F 33.8 °F 93% 29.94 in 3.0 mi NNE 12.7 mph - 0.08 in   Overcast
1:57 AM 35.2 °F 26.6 °F 34.0 °F 95% 29.92 in 5.0 mi NE 12.7 mph 18.4 mph 0.10 in Snow Light Snow
2:17 AM 35.6 °F 27.5 °F 34.2 °F 94% 29.91 in 7.0 mi NE 11.5 mph - 0.02 in Snow Light Snow
2:36 AM 35.6 °F 27.1 °F 34.2 °F 94% 29.89 in 7.0 mi NE 12.7 mph - 0.03 in Rain Light Rain
2:57 AM 35.6 °F 27.1 °F 34.2 °F 94% 29.88 in 7.0 mi NE 12.7 mph 19.6 mph 0.06 in Rain Light Rain
3:16 AM 35.2 °F 27.6 °F 34.0 °F 95% 29.87 in 7.0 mi NE 10.4 mph 18.4 mph 0.02 in Snow Light Snow
3:36 AM 35.6 °F 28.0 °F 34.2 °F 94% 29.87 in 10.0 mi NE 10.4 mph - 0.02 in Rain Light Rain
3:56 AM 35.8 °F 25.7 °F 34.7 °F 96% 29.85 in 7.0 mi NNE 17.3 mph 23.0 mph 0.02 in Rain Light Rain
4:17 AM 34.5 °F 23.4 °F 33.4 °F 96% 29.84 in 4.0 mi NNE 19.6 mph 25.3 mph 0.02 in Snow Light Snow
4:36 AM 34.7 °F 23.7 °F 33.8 °F 97% 29.83 in 7.0 mi NNE 19.6 mph 26.5 mph 0.02 in   Drizzle
4:57 AM 35.1 °F 24.1 °F 34.2 °F 97% 29.83 in 10.0 mi NNE 19.6 mph 23.0 mph 0.02 in Rain Light Rain
5:16 AM 35.2 °F 25.8 °F 34.3 °F 97% 29.82 in 4.0 mi NNE 15.0 mph 24.2 mph N/A Rain Light Rain
5:37 AM 35.2 °F 24.7 °F 34.3 °F 97% 29.81 in 4.0 mi NNE 18.4 mph 21.9 mph 0.01 in Rain Light Rain
5:56 AM 35.1 °F 23.8 °F 34.2 °F 97% 29.81 in 4.0 mi NNE 20.7 mph - 0.01 in Snow Light Snow
6:50 AM 35.6 °F 26.6 °F 33.8 °F 93% 29.79 in 5.0 mi NNE 13.8 mph - N/A Rain Light Rain
7:55 AM 35.6 °F 25.9 °F 35.6 °F 100% 29.79 in 2.0 mi NNE 16.1 mph - N/A Rain Light Rain
9:25 AM 35.6 °F 26.2 °F 33.8 °F 93% 29.79 in 7.0 mi North 15.0 mph - N/A Rain Light Rain
9:50 AM 35.6 °F 25.2 °F 35.6 °F 100% 29.77 in 7.0 mi North 18.4 mph 25.3 mph N/A Rain Rain
10:50 AM 35.6 °F 25.2 °F 33.8 °F 93% 29.77 in 5.0 mi North 18.4 mph 25.3 mph N/A Rain Light Rain
11:50 AM 35.6 °F 26.6 °F 33.8 °F 93% 29.79 in 4.0 mi North 13.8 mph 19.6 mph N/A Rain Light Rain
1:50 PM 35.6 °F 25.9 °F 32.0 °F 87% 29.79 in 10.0 mi NNW 16.1 mph 25.3 mph N/A   Overcast
2:55 PM 35.6 °F 25.2 °F 32.0 °F 87% 29.81 in 10.0 mi NNW 18.4 mph 25.3 mph N/A   Overcast
3:50 PM 35.6 °F 26.2 °F 30.2 °F 81% 29.84 in 10.0 mi NNW 15.0 mph 23.0 mph N/A   Overcast
4:50 PM 33.8 °F 23.9 °F 26.6 °F 75% 29.87 in 10.0 mi NNW 15.0 mph 25.3 mph N/A   Overcast
5:50 PM 33.8 °F 24.3 °F 26.6 °F 75% 29.89 in 10.0 mi NW 13.8 mph 20.7 mph N/A   Overcast
6:50 PM 33.8 °F 24.3 °F 26.6 °F 75% 29.92 in 10.0 mi NW 13.8 mph 18.4 mph N/A   Overcast
7:50 PM 33.8 °F 27.7 °F 26.6 °F 75% 29.94 in 10.0 mi NW 6.9 mph - N/A   Overcast
8:50 PM 32.0 °F 23.0 °F 26.6 °F 80% 29.95 in 10.0 mi NW 11.5 mph - N/A   Overcast
9:50 PM 32.0 °F 22.1 °F 26.6 °F 80% 29.97 in 10.0 mi NW 13.8 mph - N/A   Overcast
10:17 PM 32.2 °F 23.8 °F 25.7 °F 77% 29.97 in 10.0 mi WNW 10.4 mph 18.4 mph N/A   Overcast
10:36 PM 32.0 °F 24.8 °F 26.2 °F 79% 29.97 in 10.0 mi WNW 8.1 mph 16.1 mph N/A   Overcast
10:57 PM 32.0 °F 22.5 °F 26.4 °F 80% 29.97 in 10.0 mi NW 12.7 mph 16.1 mph N/A   Overcast
11:16 PM 32.0 °F 23.0 °F 26.4 °F 80% 29.97 in 10.0 mi WNW 11.5 mph - N/A   Overcast
11:36 PM 32.0 °F 24.2 °F 26.1 °F 79% 29.98 in 10.0 mi NW 9.2 mph - N/A   Overcast
11:57 PM 32.0 °F 24.2 °F 25.7 °F 78% 29.98 in 10.0 mi WNW 9.2 mph - N/A   Overcast